When you browse on this site, cookies collect data to enhance your experience and personalize the content and advertising you see.
Visit our Privacy Policy to learn more. By continuing to use the site, you agree to this use of cookies and data.
  • En España
  • Lista de países
  • Para 7 días
  • Temperatura del agua
  • Mapa Satelital
  • El tiempo en el mapa
  • Informadores
  • user-avatar
    Iniciar sesión

    Tiempo cada hora Rimini

    Hoy, 21 Junio, Viernes

    Tiempo Temperatura Precipitaciones Viento Presión Humedad
    00:00 +22°C° 0 mm 3 mps 759 mmHg 66%
    01:00 +22°C° 0 mm 3 mps 760 mmHg 67%
    02:00 +21°C° 0 mm 3 mps 760 mmHg 65%
    03:00 +21°C° 0 mm 3 mps 760 mmHg 62%
    04:00 +21°C° 0 mm 3 mps 760 mmHg 60%
    05:00 +23°C° 0 mm 2 mps 760 mmHg 60%
    06:00 +24°C° 0 mm 2 mps 760 mmHg 60%
    07:00 +25°C° 0 mm 1 mps 760 mmHg 61%
    08:00 +27°C° 0 mm 1 mps 760 mmHg 55%
    09:00 +28°C° 0 mm 1 mps 761 mmHg 50%
    10:00 +30°C° 0 mm 1 mps 761 mmHg 45%
    11:00 +30°C° 0 mm 2 mps 761 mmHg 45%
    12:00 +31°C° 0 mm 3 mps 761 mmHg 44%
    13:00 +33°C° 0 mm 3 mps 760 mmHg 44%
    14:00 +31°C° 0 mm 3 mps 760 mmHg 47%
    15:00 +31°C° 0 mm 3 mps 760 mmHg 51%
    16:00 +32°C° 0 mm 4 mps 760 mmHg 55%
    17:00 +29°C° 0 mm 3 mps 760 mmHg 62%
    18:00 +28°C° 0 mm 3 mps 760 mmHg 70%
    19:00 +27°C° 0 mm 3 mps 759 mmHg 77%
    20:00 +26°C° 0 mm 3 mps 760 mmHg 78%
    21:00 +25°C° 0 mm 3 mps 760 mmHg 78%
    22:00 +25°C° 0 mm 3 mps 760 mmHg 78%
    23:00 +24°C° 0 mm 2 mps 760 mmHg 74%

    Mañana, 22 Junio, Sábado

    Tiempo Temperatura Precipitaciones Viento Presión Humedad
    00:00 +24°C° 0 mm 2 mps 760 mmHg 70%
    01:00 +24°C° 0 mm 2 mps 760 mmHg 67%
    02:00 +24°C° 0 mm 2 mps 760 mmHg 64%
    03:00 +24°C° 0 mm 1 mps 760 mmHg 62%
    04:00 +24°C° 0 mm 1 mps 759 mmHg 59%
    05:00 +24°C° 0.3 mm 2 mps 759 mmHg 64%
    06:00 +24°C° 0.3 mm 2 mps 759 mmHg 68%
    07:00 +25°C° 0.3 mm 2 mps 760 mmHg 73%
    08:00 +26°C° 0.5 mm 2 mps 759 mmHg 65%
    09:00 +28°C° 0.5 mm 2 mps 759 mmHg 58%
    10:00 +30°C° 0.5 mm 1 mps 759 mmHg 51%
    11:00 +30°C° 0.3 mm 2 mps 759 mmHg 52%
    12:00 +31°C° 0.3 mm 3 mps 759 mmHg 53%
    13:00 +32°C° 0.3 mm 4 mps 759 mmHg 54%
    14:00 +30°C° 0.4 mm 3 mps 759 mmHg 58%
    15:00 +30°C° 0.4 mm 3 mps 758 mmHg 63%
    16:00 +29°C° 0.4 mm 3 mps 758 mmHg 67%
    17:00 +29°C° 0.3 mm 2 mps 758 mmHg 70%
    18:00 +28°C° 0.3 mm 2 mps 758 mmHg 73%
    19:00 +27°C° 0.3 mm 1 mps 758 mmHg 75%
    20:00 +26°C° 0 mm 2 mps 758 mmHg 77%
    21:00 +25°C° 0 mm 2 mps 758 mmHg 79%
    22:00 +24°C° 0 mm 2 mps 758 mmHg 81%
    23:00 +24°C° 0 mm 2 mps 758 mmHg 82%

    Pasado mañana, 23 Junio, Domingo

    Tiempo Temperatura Precipitaciones Viento Presión Humedad
    00:00 +22°C° 0 mm 3 mps 758 mmHg 83%
    01:00 +22°C° 0 mm 3 mps 758 mmHg 84%
    02:00 +21°C° 0 mm 3 mps 758 mmHg 84%
    03:00 +21°C° 0 mm 3 mps 758 mmHg 85%
    04:00 +20°C° 0 mm 3 mps 758 mmHg 86%
    05:00 +21°C° 0 mm 3 mps 758 mmHg 81%
    06:00 +22°C° 0 mm 3 mps 759 mmHg 77%
    07:00 +24°C° 0 mm 3 mps 759 mmHg 72%
    08:00 +26°C° 0 mm 3 mps 759 mmHg 67%
    09:00 +28°C° 0 mm 3 mps 759 mmHg 61%
    10:00 +29°C° 0 mm 2 mps 759 mmHg 56%
    11:00 +30°C° 0 mm 3 mps 759 mmHg 55%
    12:00 +30°C° 0 mm 3 mps 760 mmHg 53%
    13:00 +31°C° 0 mm 3 mps 760 mmHg 52%
    14:00 +31°C° 0.1 mm 3 mps 760 mmHg 54%
    15:00 +30°C° 0.1 mm 2 mps 759 mmHg 57%
    16:00 +30°C° 0.1 mm 2 mps 759 mmHg 59%
    17:00 +29°C° 0 mm 2 mps 759 mmHg 63%
    18:00 +28°C° 0 mm 2 mps 759 mmHg 68%
    19:00 +28°C° 0 mm 2 mps 760 mmHg 72%
    20:00 +27°C° 0 mm 2 mps 760 mmHg 74%
    21:00 +26°C° 0 mm 2 mps 760 mmHg 75%
    22:00 +25°C° 0 mm 2 mps 761 mmHg 77%
    23:00 +24°C° 0 mm 2 mps 761 mmHg 77%

    24 Junio, Lunes

    Tiempo Temperatura Precipitaciones Viento Presión Humedad
    00:00 +24°C° 0 mm 1 mps 761 mmHg 77%
    01:00 +24°C° 0 mm 1 mps 761 mmHg 78%
    02:00 +24°C° 0 mm 2 mps 761 mmHg 78%
    03:00 +23°C° 0 mm 2 mps 761 mmHg 79%
    04:00 +23°C° 0 mm 2 mps 761 mmHg 79%
    05:00 +24°C° 0 mm 2 mps 762 mmHg 76%
    06:00 +25°C° 0 mm 2 mps 762 mmHg 74%
    07:00 +26°C° 0 mm 2 mps 762 mmHg 71%
    08:00 +28°C° 0 mm 2 mps 762 mmHg 67%
    09:00 +29°C° 0 mm 3 mps 763 mmHg 63%
    10:00 +30°C° 0 mm 3 mps 763 mmHg 58%
    11:00 +30°C° 0 mm 3 mps 763 mmHg 57%
    12:00 +31°C° 0 mm 3 mps 763 mmHg 56%
    13:00 +31°C° 0 mm 3 mps 763 mmHg 55%
    14:00 +31°C° 0 mm 2 mps 763 mmHg 53%
    15:00 +31°C° 0 mm 2 mps 763 mmHg 52%
    16:00 +31°C° 0 mm 1 mps 763 mmHg 50%
    17:00 +30°C° 0 mm 1 mps 763 mmHg 55%
    18:00 +29°C° 0 mm 1 mps 763 mmHg 59%
    19:00 +28°C° 0 mm 1 mps 763 mmHg 63%
    20:00 +27°C° 0 mm 1 mps 763 mmHg 63%
    21:00 +26°C° 0 mm 1 mps 764 mmHg 64%
    22:00 +25°C° 0 mm 2 mps 764 mmHg 64%
    23:00 +25°C° 0 mm 2 mps 764 mmHg 65%

    25 Junio, Martes

    Tiempo Temperatura Precipitaciones Viento Presión Humedad
    00:00 +25°C° 0 mm 2 mps 764 mmHg 65%
    01:00 +25°C° 0 mm 2 mps 764 mmHg 65%
    02:00 +24°C° 0 mm 2 mps 764 mmHg 67%
    03:00 +24°C° 0 mm 2 mps 764 mmHg 68%
    04:00 +24°C° 0 mm 2 mps 764 mmHg 70%
    05:00 +25°C° 0 mm 2 mps 764 mmHg 69%
    06:00 +26°C° 0 mm 2 mps 764 mmHg 68%
    07:00 +27°C° 0 mm 3 mps 764 mmHg 66%
    08:00 +28°C° 0 mm 3 mps 764 mmHg 64%
    09:00 +29°C° 0 mm 3 mps 765 mmHg 61%
    10:00 +30°C° 0 mm 3 mps 765 mmHg 58%
    11:00 +31°C° 0 mm 3 mps 765 mmHg 57%
    12:00 +31°C° 0 mm 3 mps 764 mmHg 56%
    13:00 +33°C° 0 mm 3 mps 764 mmHg 54%
    14:00 +33°C° 0 mm 3 mps 764 mmHg 54%
    15:00 +33°C° 0 mm 3 mps 764 mmHg 54%
    16:00 +33°C° 0 mm 3 mps 764 mmHg 53%
    17:00 +31°C° 0 mm 2 mps 764 mmHg 58%
    18:00 +30°C° 0 mm 2 mps 764 mmHg 63%
    19:00 +29°C° 0 mm 1 mps 764 mmHg 67%
    20:00 +28°C° 0 mm 1 mps 764 mmHg 68%
    21:00 +27°C° 0 mm 2 mps 764 mmHg 69%
    22:00 +26°C° 0 mm 2 mps 764 mmHg 70%
    23:00 +26°C° 0 mm 2 mps 764 mmHg 69%

    26 Junio, Miércoles

    Tiempo Temperatura Precipitaciones Viento Presión Humedad
    00:00 +25°C° 0 mm 2 mps 764 mmHg 69%
    01:00 +25°C° 0 mm 2 mps 764 mmHg 69%
    02:00 +25°C° 0 mm 2 mps 764 mmHg 69%
    03:00 +25°C° 0 mm 3 mps 764 mmHg 69%
    04:00 +25°C° 0 mm 3 mps 763 mmHg 70%
    05:00 +26°C° 0 mm 3 mps 763 mmHg 69%
    06:00 +27°C° 0 mm 3 mps 763 mmHg 68%
    07:00 +28°C° 0 mm 3 mps 763 mmHg 67%
    08:00 +29°C° 0 mm 3 mps 763 mmHg 66%
    09:00 +30°C° 0 mm 3 mps 763 mmHg 64%
    10:00 +33°C° 0 mm 3 mps 763 mmHg 63%
    11:00 +33°C° 0 mm 3 mps 763 mmHg 60%
    12:00 +33°C° 0 mm 3 mps 763 mmHg 58%
    13:00 +33°C° 0 mm 3 mps 763 mmHg 55%
    14:00 +34°C° 0 mm 2 mps 762 mmHg 54%
    15:00 +34°C° 0 mm 2 mps 762 mmHg 52%
    16:00 +34°C° 0 mm 2 mps 762 mmHg 51%
    17:00 +32°C° 0 mm 2 mps 762 mmHg 55%
    18:00 +31°C° 0 mm 2 mps 761 mmHg 60%
    19:00 +30°C° 0 mm 1 mps 761 mmHg 64%
    20:00 +29°C° 0 mm 2 mps 761 mmHg 64%
    21:00 +28°C° 0 mm 2 mps 762 mmHg 65%
    22:00 +27°C° 0 mm 2 mps 762 mmHg 65%
    23:00 +26°C° 0 mm 2 mps 762 mmHg 66%
    Mostrar más